Year,Month,Day,Hour,Minute,Value (Times are PST for temperature in C)
2015,07,19,00,00,19.40
2015,07,19,00,01,19.40
2015,07,19,00,02,19.40
2015,07,19,00,03,19.40
2015,07,19,00,04,19.40
2015,07,19,00,05,19.40
2015,07,19,00,06,19.40
2015,07,19,00,07,19.30
2015,07,19,00,08,19.30
2015,07,19,00,09,19.30
2015,07,19,00,10,19.30
2015,07,19,00,11,19.30
2015,07,19,00,12,19.20
2015,07,19,00,13,19.20
2015,07,19,00,14,19.20
2015,07,19,00,15,19.20
2015,07,19,00,16,19.20
2015,07,19,00,17,19.10
2015,07,19,00,18,19.10
2015,07,19,00,19,19.10
2015,07,19,00,20,19.10
2015,07,19,00,21,19.10
2015,07,19,00,22,19.10
2015,07,19,00,23,19.00
2015,07,19,00,24,19.00
2015,07,19,00,25,19.00
2015,07,19,00,26,18.90
2015,07,19,00,27,18.90
2015,07,19,00,28,18.90
2015,07,19,00,29,18.90
2015,07,19,00,30,18.90
2015,07,19,00,31,18.90
2015,07,19,00,32,18.90
2015,07,19,00,33,18.90
2015,07,19,00,34,18.90
2015,07,19,00,35,18.90
2015,07,19,00,36,18.90
2015,07,19,00,37,18.80
2015,07,19,00,38,18.80
2015,07,19,00,39,18.80
2015,07,19,00,40,18.80
2015,07,19,00,41,18.80
2015,07,19,00,42,18.80
2015,07,19,00,43,18.80
2015,07,19,00,44,18.80
2015,07,19,00,45,18.80
2015,07,19,00,46,18.80
2015,07,19,00,47,18.80
2015,07,19,00,48,18.80
2015,07,19,00,49,18.70
2015,07,19,00,50,18.70
2015,07,19,00,51,18.70
2015,07,19,00,52,18.70
2015,07,19,00,53,18.60
2015,07,19,00,54,18.60
2015,07,19,00,55,18.60
2015,07,19,00,56,18.50
2015,07,19,00,57,18.50
2015,07,19,00,58,18.50
2015,07,19,00,59,18.40
2015,07,19,01,00,18.40
2015,07,19,01,01,18.40
2015,07,19,01,02,18.40
2015,07,19,01,03,18.40
2015,07,19,01,04,18.30
2015,07,19,01,05,18.30
2015,07,19,01,06,18.30
2015,07,19,01,07,18.30
2015,07,19,01,08,18.30
2015,07,19,01,09,18.30
2015,07,19,01,10,18.30
2015,07,19,01,11,18.30
2015,07,19,01,12,18.20
2015,07,19,01,13,18.20
2015,07,19,01,14,18.20
2015,07,19,01,15,18.20
2015,07,19,01,16,18.10
2015,07,19,01,17,18.10
2015,07,19,01,18,18.10
2015,07,19,01,19,18.10
2015,07,19,01,20,18.10
2015,07,19,01,21,18.10
2015,07,19,01,22,18.10
2015,07,19,01,23,18.00
2015,07,19,01,24,18.00
2015,07,19,01,25,18.00
2015,07,19,01,26,17.90
2015,07,19,01,27,17.90
2015,07,19,01,28,17.90
2015,07,19,01,29,17.90
2015,07,19,01,30,17.80
2015,07,19,01,31,17.80
2015,07,19,01,32,17.80
2015,07,19,01,33,17.80
2015,07,19,01,34,17.80
2015,07,19,01,35,17.80
2015,07,19,01,36,17.80
2015,07,19,01,37,17.80
2015,07,19,01,38,17.80
2015,07,19,01,39,17.70
2015,07,19,01,40,17.70
2015,07,19,01,41,17.70
2015,07,19,01,42,17.70
2015,07,19,01,43,17.70
2015,07,19,01,44,17.70
2015,07,19,01,45,17.70
2015,07,19,01,46,17.70
2015,07,19,01,47,17.70
2015,07,19,01,48,17.70
2015,07,19,01,49,17.70
2015,07,19,01,50,17.70
2015,07,19,01,51,17.70
2015,07,19,01,52,17.70
2015,07,19,01,53,17.70
2015,07,19,01,54,17.70
2015,07,19,01,55,17.70
2015,07,19,01,56,17.70
2015,07,19,01,57,17.70
2015,07,19,01,58,17.70
2015,07,19,01,59,17.70
2015,07,19,02,00,17.70
2015,07,19,02,01,17.70
2015,07,19,02,02,17.70
2015,07,19,02,03,17.80
2015,07,19,02,04,17.80
2015,07,19,02,05,17.80
2015,07,19,02,06,17.80
2015,07,19,02,07,17.80
2015,07,19,02,08,17.80
2015,07,19,02,09,17.80
2015,07,19,02,10,17.80
2015,07,19,02,11,17.80
2015,07,19,02,12,17.80
2015,07,19,02,13,17.80
2015,07,19,02,14,17.80
2015,07,19,02,15,17.80
2015,07,19,02,16,17.80
2015,07,19,02,17,17.80
2015,07,19,02,18,17.80
2015,07,19,02,19,17.80
2015,07,19,02,20,17.80
2015,07,19,02,21,17.70
2015,07,19,02,22,17.70
2015,07,19,02,23,17.70
2015,07,19,02,24,17.70
2015,07,19,02,25,17.70
2015,07,19,02,26,17.70
2015,07,19,02,27,17.70
2015,07,19,02,28,17.70
2015,07,19,02,29,17.70
2015,07,19,02,30,17.60
2015,07,19,02,31,17.60
2015,07,19,02,32,17.60
2015,07,19,02,33,17.60
2015,07,19,02,34,17.60
2015,07,19,02,35,17.60
2015,07,19,02,36,17.50
2015,07,19,02,37,17.50
2015,07,19,02,38,17.50
2015,07,19,02,39,17.50
2015,07,19,02,40,17.40
2015,07,19,02,41,17.40
2015,07,19,02,42,17.40
2015,07,19,02,43,17.40
2015,07,19,02,44,17.40
2015,07,19,02,45,17.40
2015,07,19,02,46,17.40
2015,07,19,02,47,17.40
2015,07,19,02,48,17.40
2015,07,19,02,49,17.40
2015,07,19,02,50,17.40
2015,07,19,02,51,17.40
2015,07,19,02,52,17.30
2015,07,19,02,53,17.30
2015,07,19,02,54,17.30
2015,07,19,02,55,17.30
2015,07,19,02,56,17.30
2015,07,19,02,57,17.20
2015,07,19,02,58,17.20
2015,07,19,02,59,17.20
2015,07,19,03,00,17.20
2015,07,19,03,01,17.10
2015,07,19,03,02,17.10
2015,07,19,03,03,17.10
2015,07,19,03,04,17.10
2015,07,19,03,05,17.10
2015,07,19,03,06,17.00
2015,07,19,03,07,17.00
2015,07,19,03,08,17.00
2015,07,19,03,09,17.00
2015,07,19,03,10,16.90
2015,07,19,03,11,16.90
2015,07,19,03,12,16.90
2015,07,19,03,13,16.90
2015,07,19,03,14,16.90
2015,07,19,03,15,16.90
2015,07,19,03,16,16.90
2015,07,19,03,17,16.90
2015,07,19,03,18,16.90
2015,07,19,03,19,16.90
2015,07,19,03,20,16.80
2015,07,19,03,21,16.80
2015,07,19,03,22,16.80
2015,07,19,03,23,16.80
2015,07,19,03,24,16.80
2015,07,19,03,25,16.80
2015,07,19,03,26,16.80
2015,07,19,03,27,16.80
2015,07,19,03,28,16.80
2015,07,19,03,29,16.80
2015,07,19,03,30,16.70
2015,07,19,03,31,16.70
2015,07,19,03,32,16.70
2015,07,19,03,33,16.70
2015,07,19,03,34,16.70
2015,07,19,03,35,16.70
2015,07,19,03,36,16.70
2015,07,19,03,37,16.70
2015,07,19,03,38,16.60
2015,07,19,03,39,16.60
2015,07,19,03,40,16.60
2015,07,19,03,41,16.70
2015,07,19,03,42,16.70
2015,07,19,03,43,16.70
2015,07,19,03,44,16.70
2015,07,19,03,45,16.70
2015,07,19,03,46,16.70
2015,07,19,03,47,16.60
2015,07,19,03,48,16.60
2015,07,19,03,49,16.60
2015,07,19,03,50,16.60
2015,07,19,03,51,16.60
2015,07,19,03,52,16.50
2015,07,19,03,53,16.50
2015,07,19,03,54,16.50
2015,07,19,03,55,16.50
2015,07,19,03,56,16.50
2015,07,19,03,57,16.50
2015,07,19,03,58,16.50
2015,07,19,03,59,16.40
2015,07,19,04,00,16.40
2015,07,19,04,01,16.40
2015,07,19,04,02,16.30
2015,07,19,04,03,16.30
2015,07,19,04,04,16.30
2015,07,19,04,05,16.30
2015,07,19,04,06,16.30
2015,07,19,04,07,16.20
2015,07,19,04,08,16.20
2015,07,19,04,09,16.20
2015,07,19,04,10,16.10
2015,07,19,04,11,16.10
2015,07,19,04,12,16.10
2015,07,19,04,13,16.00
2015,07,19,04,14,16.00
2015,07,19,04,15,15.90
2015,07,19,04,16,15.90
2015,07,19,04,17,15.90
2015,07,19,04,18,15.90
2015,07,19,04,19,15.90
2015,07,19,04,20,15.80
2015,07,19,04,21,15.80
2015,07,19,04,22,15.80
2015,07,19,04,23,15.80
2015,07,19,04,24,15.80
2015,07,19,04,25,15.80
2015,07,19,04,26,15.80
2015,07,19,04,27,15.80
2015,07,19,04,28,15.80
2015,07,19,04,29,15.80
2015,07,19,04,30,15.80
2015,07,19,04,31,15.80
2015,07,19,04,32,15.80
2015,07,19,04,33,15.80
2015,07,19,04,34,15.80
2015,07,19,04,35,15.80
2015,07,19,04,36,15.80
2015,07,19,04,37,15.80
2015,07,19,04,38,15.80
2015,07,19,04,39,15.90
2015,07,19,04,40,15.90
2015,07,19,04,41,15.90
2015,07,19,04,42,16.00
2015,07,19,04,43,16.00
2015,07,19,04,44,16.00
2015,07,19,04,45,16.00
2015,07,19,04,46,16.00
2015,07,19,04,47,16.00
2015,07,19,04,48,16.00
2015,07,19,04,49,16.00
2015,07,19,04,50,16.00
2015,07,19,04,51,16.10
2015,07,19,04,52,16.10
2015,07,19,04,53,16.10
2015,07,19,04,54,16.10
2015,07,19,04,55,16.10
2015,07,19,04,56,16.10
2015,07,19,04,57,16.10
2015,07,19,04,58,16.00
2015,07,19,04,59,16.00
2015,07,19,05,00,16.00
2015,07,19,05,01,16.00
2015,07,19,05,02,16.00
2015,07,19,05,03,16.00
2015,07,19,05,04,16.00
2015,07,19,05,05,16.00
2015,07,19,05,06,16.00
2015,07,19,05,07,16.00
2015,07,19,05,08,16.00
2015,07,19,05,09,16.00
2015,07,19,05,10,16.00
2015,07,19,05,11,16.00
2015,07,19,05,12,16.00
2015,07,19,05,13,16.00
2015,07,19,05,14,16.00
2015,07,19,05,15,15.90
2015,07,19,05,16,15.90
2015,07,19,05,17,15.90
2015,07,19,05,18,15.90
2015,07,19,05,19,15.90
2015,07,19,05,20,15.90
2015,07,19,05,21,15.90
2015,07,19,05,22,15.80
2015,07,19,05,23,15.80
2015,07,19,05,24,15.80
2015,07,19,05,25,15.80
2015,07,19,05,26,15.80
2015,07,19,05,27,15.80
2015,07,19,05,28,15.80
2015,07,19,05,29,15.80
2015,07,19,05,30,15.80
2015,07,19,05,31,15.80
2015,07,19,05,32,15.80
2015,07,19,05,33,15.80
2015,07,19,05,34,15.80
2015,07,19,05,35,15.80
2015,07,19,05,36,15.70
2015,07,19,05,37,15.70
2015,07,19,05,38,15.70
2015,07,19,05,39,15.70
2015,07,19,05,40,15.70
2015,07,19,05,41,15.70
2015,07,19,05,42,15.70
2015,07,19,05,43,15.70
2015,07,19,05,44,15.70
2015,07,19,05,45,15.70
2015,07,19,05,46,15.70
2015,07,19,05,47,15.70
2015,07,19,05,48,15.70
2015,07,19,05,49,15.60
2015,07,19,05,50,15.70
2015,07,19,05,51,15.70
2015,07,19,05,52,15.70
2015,07,19,05,53,15.60
2015,07,19,05,54,15.60
2015,07,19,05,55,15.70
2015,07,19,05,56,15.70
2015,07,19,05,57,15.70
2015,07,19,05,58,15.70
2015,07,19,05,59,15.70
2015,07,19,06,00,15.70
2015,07,19,06,01,15.80
2015,07,19,06,02,15.80
2015,07,19,06,03,15.80
2015,07,19,06,04,15.90
2015,07,19,06,05,15.90
2015,07,19,06,06,15.90
2015,07,19,06,07,15.90
2015,07,19,06,08,15.90
2015,07,19,06,09,15.90
2015,07,19,06,10,15.90
2015,07,19,06,11,15.90
2015,07,19,06,12,15.90
2015,07,19,06,13,15.80
2015,07,19,06,14,15.80
2015,07,19,06,15,15.80
2015,07,19,06,16,15.80
2015,07,19,06,17,15.80
2015,07,19,06,18,15.80
2015,07,19,06,19,15.80
2015,07,19,06,20,15.80
2015,07,19,06,21,15.80
2015,07,19,06,22,15.80
2015,07,19,06,23,15.80
2015,07,19,06,24,15.80
2015,07,19,06,25,15.80
2015,07,19,06,26,15.80
2015,07,19,06,27,15.80
2015,07,19,06,28,15.80
2015,07,19,06,29,15.80
2015,07,19,06,30,15.80
2015,07,19,06,31,15.70
2015,07,19,06,32,15.70
2015,07,19,06,33,15.70
2015,07,19,06,34,15.70
2015,07,19,06,35,15.70
2015,07,19,06,36,15.70
2015,07,19,06,37,15.70
2015,07,19,06,38,15.70
2015,07,19,06,39,15.70
2015,07,19,06,40,15.70
2015,07,19,06,41,15.70
2015,07,19,06,42,15.70
2015,07,19,06,43,15.70
2015,07,19,06,44,15.70
2015,07,19,06,45,15.70
2015,07,19,06,46,15.70
2015,07,19,06,47,15.70
2015,07,19,06,48,15.70
2015,07,19,06,49,15.70
2015,07,19,06,50,15.70
2015,07,19,06,51,15.70
2015,07,19,06,52,15.70
2015,07,19,06,53,15.80
2015,07,19,06,54,15.80
2015,07,19,06,55,15.80
2015,07,19,06,56,15.80
2015,07,19,06,57,15.80
2015,07,19,06,58,15.90
2015,07,19,06,59,15.90
2015,07,19,07,00,15.90
2015,07,19,07,01,15.90
2015,07,19,07,02,15.90
2015,07,19,07,03,16.00
2015,07,19,07,04,16.00
2015,07,19,07,05,16.10
2015,07,19,07,06,16.10
2015,07,19,07,07,16.20
2015,07,19,07,08,16.30
2015,07,19,07,09,16.40
2015,07,19,07,10,16.40
2015,07,19,07,11,16.50
2015,07,19,07,12,16.60
2015,07,19,07,13,16.70
2015,07,19,07,14,16.80
2015,07,19,07,15,16.80
2015,07,19,07,16,16.90
2015,07,19,07,17,17.00
2015,07,19,07,18,17.10
2015,07,19,07,19,17.20
2015,07,19,07,20,17.30
2015,07,19,07,21,17.40
2015,07,19,07,22,17.50
2015,07,19,07,23,17.60
2015,07,19,07,24,17.70
2015,07,19,07,25,17.80
2015,07,19,07,26,17.90
2015,07,19,07,27,18.00
2015,07,19,07,28,18.10
2015,07,19,07,29,18.20
2015,07,19,07,30,18.30
2015,07,19,07,31,18.40
2015,07,19,07,32,18.50
2015,07,19,07,33,18.60
2015,07,19,07,34,18.70
2015,07,19,07,35,18.80
2015,07,19,07,36,19.00
2015,07,19,07,37,19.10
2015,07,19,07,38,19.30
2015,07,19,07,39,19.40
2015,07,19,07,40,19.60
2015,07,19,07,41,19.80
2015,07,19,07,42,19.90
2015,07,19,07,43,20.10
2015,07,19,07,44,20.20
2015,07,19,07,45,20.30
2015,07,19,07,46,20.30
2015,07,19,07,47,20.40
2015,07,19,07,48,20.50
2015,07,19,07,49,20.50
2015,07,19,07,50,20.60
2015,07,19,07,51,20.60
2015,07,19,07,52,20.70
2015,07,19,07,53,20.70
2015,07,19,07,54,20.80
2015,07,19,07,55,20.80
2015,07,19,07,56,20.90
2015,07,19,07,57,21.00
2015,07,19,07,58,21.10
2015,07,19,07,59,21.10
2015,07,19,08,00,21.20
2015,07,19,08,01,21.20
2015,07,19,08,02,21.20
2015,07,19,08,03,21.20
2015,07,19,08,04,21.20
2015,07,19,08,05,21.20
2015,07,19,08,06,21.30
2015,07,19,08,07,21.30
2015,07,19,08,08,21.30
2015,07,19,08,09,21.30
2015,07,19,08,10,21.30
2015,07,19,08,11,21.30
2015,07,19,08,12,21.30
2015,07,19,08,13,21.30
2015,07,19,08,14,21.40
2015,07,19,08,15,21.40
2015,07,19,08,16,21.40
2015,07,19,08,17,21.40
2015,07,19,08,18,21.50
2015,07,19,08,19,21.50
2015,07,19,08,20,21.50
2015,07,19,08,21,21.50
2015,07,19,08,22,21.40
2015,07,19,08,23,21.40
2015,07,19,08,24,21.40
2015,07,19,08,25,21.40
2015,07,19,08,26,21.40
2015,07,19,08,27,21.40
2015,07,19,08,28,21.50
2015,07,19,08,29,21.50
2015,07,19,08,30,21.50
2015,07,19,08,31,21.50
2015,07,19,08,32,21.50
2015,07,19,08,33,21.60
2015,07,19,08,34,21.60
2015,07,19,08,35,21.60
2015,07,19,08,36,21.60
2015,07,19,08,37,21.70
2015,07,19,08,38,21.80
2015,07,19,08,39,21.80
2015,07,19,08,40,21.90
2015,07,19,08,41,22.00
2015,07,19,08,42,22.10
2015,07,19,08,43,22.20
2015,07,19,08,44,22.30
2015,07,19,08,45,22.40
2015,07,19,08,46,22.40
2015,07,19,08,47,22.50
2015,07,19,08,48,22.60
2015,07,19,08,49,22.60
2015,07,19,08,50,22.60
2015,07,19,08,51,22.50
2015,07,19,08,52,22.50
2015,07,19,08,53,22.40
2015,07,19,08,54,22.30
2015,07,19,08,55,22.20
2015,07,19,08,56,22.30
2015,07,19,08,57,22.30
2015,07,19,08,58,22.30
2015,07,19,08,59,22.40
2015,07,19,09,00,22.40
2015,07,19,09,01,22.50
2015,07,19,09,02,22.60
2015,07,19,09,03,22.60
2015,07,19,09,04,22.60
2015,07,19,09,05,22.70
2015,07,19,09,06,22.80
2015,07,19,09,07,22.90
2015,07,19,09,08,23.00
2015,07,19,09,09,23.10
2015,07,19,09,10,23.20
2015,07,19,09,11,23.30
2015,07,19,09,12,23.30
2015,07,19,09,13,23.30
2015,07,19,09,14,23.30
2015,07,19,09,15,23.40
2015,07,19,09,16,23.40
2015,07,19,09,17,23.40
2015,07,19,09,18,23.50
2015,07,19,09,19,23.50
2015,07,19,09,20,23.50
2015,07,19,09,21,23.50
2015,07,19,09,22,23.50
2015,07,19,09,23,23.50
2015,07,19,09,24,23.50
2015,07,19,09,25,23.60
2015,07,19,09,26,23.50
2015,07,19,09,27,23.50
2015,07,19,09,28,23.50
2015,07,19,09,29,23.40
2015,07,19,09,30,23.30
2015,07,19,09,31,23.30
2015,07,19,09,32,23.20
2015,07,19,09,33,23.10
2015,07,19,09,34,23.00
2015,07,19,09,35,23.00
2015,07,19,09,36,22.90
2015,07,19,09,37,22.80
2015,07,19,09,38,22.70
2015,07,19,09,39,22.70
2015,07,19,09,40,22.70
2015,07,19,09,41,22.70
2015,07,19,09,42,22.70
2015,07,19,09,43,22.70
2015,07,19,09,44,22.60
2015,07,19,09,45,22.50
2015,07,19,09,46,22.50
2015,07,19,09,47,22.40
2015,07,19,09,48,22.30
2015,07,19,09,49,22.30
2015,07,19,09,50,22.30
2015,07,19,09,51,22.30
2015,07,19,09,52,22.30
2015,07,19,09,53,22.30
2015,07,19,09,54,22.40
2015,07,19,09,55,22.40
2015,07,19,09,56,22.40
2015,07,19,09,57,22.30
2015,07,19,09,58,22.30
2015,07,19,09,59,22.40
2015,07,19,10,00,22.40
2015,07,19,10,01,22.40
2015,07,19,10,02,22.50
2015,07,19,10,03,22.60
2015,07,19,10,04,22.60
2015,07,19,10,05,22.50
2015,07,19,10,06,22.50
2015,07,19,10,07,22.40
2015,07,19,10,08,22.40
2015,07,19,10,09,22.40
2015,07,19,10,10,22.50
2015,07,19,10,11,22.50
2015,07,19,10,12,22.50
2015,07,19,10,13,22.50
2015,07,19,10,14,22.50
2015,07,19,10,15,22.50
2015,07,19,10,16,22.60
2015,07,19,10,17,22.60
2015,07,19,10,18,22.70
2015,07,19,10,19,22.80
2015,07,19,10,20,23.00
2015,07,19,10,21,23.10
2015,07,19,10,22,23.10
2015,07,19,10,23,23.20
2015,07,19,10,24,23.10
2015,07,19,10,25,23.10
2015,07,19,10,26,23.10
2015,07,19,10,27,23.00
2015,07,19,10,28,22.90
2015,07,19,10,29,22.80
2015,07,19,10,30,22.70
2015,07,19,10,31,22.60
2015,07,19,10,32,22.50
2015,07,19,10,33,22.40
2015,07,19,10,34,22.30
2015,07,19,10,35,22.30
2015,07,19,10,36,22.30
2015,07,19,10,37,22.40
2015,07,19,10,38,22.40
2015,07,19,10,39,22.50
2015,07,19,10,40,22.50
2015,07,19,10,41,22.40
2015,07,19,10,42,22.40
2015,07,19,10,43,22.50
2015,07,19,10,44,22.60
2015,07,19,10,45,22.60
2015,07,19,10,46,22.60
2015,07,19,10,47,22.70
2015,07,19,10,48,22.70
2015,07,19,10,49,22.80
2015,07,19,10,50,22.90
2015,07,19,10,51,23.00
2015,07,19,10,52,23.10
2015,07,19,10,53,23.20
2015,07,19,10,54,23.20
2015,07,19,10,55,23.20
2015,07,19,10,56,23.10
2015,07,19,10,57,23.10
2015,07,19,10,58,23.10
2015,07,19,10,59,23.00
2015,07,19,11,00,23.00
2015,07,19,11,01,22.90
2015,07,19,11,02,22.90
2015,07,19,11,03,22.80
2015,07,19,11,04,22.80
2015,07,19,11,05,22.90
2015,07,19,11,06,23.00
2015,07,19,11,07,23.00
2015,07,19,11,08,23.00
2015,07,19,11,09,23.00
2015,07,19,11,10,23.00
2015,07,19,11,11,22.90
2015,07,19,11,12,22.90
2015,07,19,11,13,22.90
2015,07,19,11,14,22.90
2015,07,19,11,15,22.90
2015,07,19,11,16,22.90
2015,07,19,11,17,23.00
2015,07,19,11,18,23.00
2015,07,19,11,19,23.00
2015,07,19,11,20,23.00
2015,07,19,11,21,22.90
2015,07,19,11,22,22.90
2015,07,19,11,23,23.00
2015,07,19,11,24,23.00
2015,07,19,11,25,23.10
2015,07,19,11,26,23.20
2015,07,19,11,27,23.30
2015,07,19,11,28,23.30
2015,07,19,11,29,23.40
2015,07,19,11,30,23.50
2015,07,19,11,31,23.50
2015,07,19,11,32,23.60
2015,07,19,11,33,23.70
2015,07,19,11,34,23.70
2015,07,19,11,35,23.80
2015,07,19,11,36,23.80
2015,07,19,11,37,23.70
2015,07,19,11,38,23.50
2015,07,19,11,39,23.40
2015,07,19,11,40,23.30
2015,07,19,11,41,23.20
2015,07,19,11,42,23.10
2015,07,19,11,43,23.10
2015,07,19,11,44,23.10
2015,07,19,11,45,23.10
2015,07,19,11,46,23.10
2015,07,19,11,47,23.10
2015,07,19,11,48,23.00
2015,07,19,11,49,23.00
2015,07,19,11,50,23.00
2015,07,19,11,51,23.00
2015,07,19,11,52,23.10
2015,07,19,11,53,23.20
2015,07,19,11,54,23.20
2015,07,19,11,55,23.30
2015,07,19,11,56,23.40
2015,07,19,11,57,23.50
2015,07,19,11,58,23.50
2015,07,19,11,59,23.60
2015,07,19,12,00,23.70
2015,07,19,12,01,23.80
2015,07,19,12,02,23.90
2015,07,19,12,03,24.00
2015,07,19,12,04,24.00
2015,07,19,12,05,24.00
2015,07,19,12,06,23.90
2015,07,19,12,07,23.80
2015,07,19,12,08,23.70
2015,07,19,12,09,23.70
2015,07,19,12,10,23.80
2015,07,19,12,11,23.80
2015,07,19,12,12,23.80
2015,07,19,12,13,23.90
2015,07,19,12,14,23.80
2015,07,19,12,15,23.80
2015,07,19,12,16,23.70
2015,07,19,12,17,23.70
2015,07,19,12,18,23.70
2015,07,19,12,19,23.80
2015,07,19,12,20,23.90
2015,07,19,12,21,23.90
2015,07,19,12,22,24.00
2015,07,19,12,23,24.00
2015,07,19,12,24,24.10
2015,07,19,12,25,24.10
2015,07,19,12,26,24.10
2015,07,19,12,27,24.20
2015,07,19,12,28,24.20
2015,07,19,12,29,24.20
2015,07,19,12,30,24.20
2015,07,19,12,31,24.20
2015,07,19,12,32,24.20
2015,07,19,12,33,24.20
2015,07,19,12,34,24.30
2015,07,19,12,35,24.40
2015,07,19,12,36,24.30
2015,07,19,12,37,24.30
2015,07,19,12,38,24.20
2015,07,19,12,39,24.10
2015,07,19,12,40,24.10
2015,07,19,12,41,24.20
2015,07,19,12,42,24.30
2015,07,19,12,43,24.30
2015,07,19,12,44,24.30
2015,07,19,12,45,24.30
2015,07,19,12,46,24.20
2015,07,19,12,47,24.10
2015,07,19,12,48,24.10
2015,07,19,12,49,24.20
2015,07,19,12,50,24.30
2015,07,19,12,51,24.30
2015,07,19,12,52,24.40
2015,07,19,12,53,24.50
2015,07,19,12,54,24.60
2015,07,19,12,55,24.60
2015,07,19,12,56,24.60
2015,07,19,12,57,24.60
2015,07,19,12,58,24.60
2015,07,19,12,59,24.70
2015,07,19,13,00,24.70
2015,07,19,13,01,24.70
2015,07,19,13,02,24.70
2015,07,19,13,03,24.60
2015,07,19,13,04,24.60
2015,07,19,13,05,24.60
2015,07,19,13,06,24.50
2015,07,19,13,07,24.50
2015,07,19,13,08,24.60
2015,07,19,13,09,24.60
2015,07,19,13,10,24.60
2015,07,19,13,11,24.70
2015,07,19,13,12,24.70
2015,07,19,13,13,24.80
2015,07,19,13,14,24.90
2015,07,19,13,15,24.90
2015,07,19,13,16,25.00
2015,07,19,13,17,25.10
2015,07,19,13,18,25.20
2015,07,19,13,19,25.10
2015,07,19,13,20,25.10
2015,07,19,13,21,25.20
2015,07,19,13,22,25.30
2015,07,19,13,23,25.30
2015,07,19,13,24,25.20
2015,07,19,13,25,25.20
2015,07,19,13,26,25.20
2015,07,19,13,27,25.20
2015,07,19,13,28,25.20
2015,07,19,13,29,25.20
2015,07,19,13,30,25.20
2015,07,19,13,31,25.30
2015,07,19,13,32,25.40
2015,07,19,13,33,25.40
2015,07,19,13,34,25.40
2015,07,19,13,35,25.40
2015,07,19,13,36,25.40
2015,07,19,13,37,25.50
2015,07,19,13,38,25.60
2015,07,19,13,39,25.60
2015,07,19,13,40,25.60
2015,07,19,13,41,25.50
2015,07,19,13,42,25.40
2015,07,19,13,43,25.40
2015,07,19,13,44,25.40
2015,07,19,13,45,25.40
2015,07,19,13,46,25.40
2015,07,19,13,47,25.40
2015,07,19,13,48,25.50
2015,07,19,13,49,25.50
2015,07,19,13,50,25.40
2015,07,19,13,51,25.30
2015,07,19,13,52,25.20
2015,07,19,13,53,25.20
2015,07,19,13,54,25.30
2015,07,19,13,55,25.30
2015,07,19,13,56,25.30
2015,07,19,13,57,25.40
2015,07,19,13,58,25.50
2015,07,19,13,59,25.60
2015,07,19,14,00,25.70
2015,07,19,14,01,25.80
2015,07,19,14,02,25.80
2015,07,19,14,03,25.90
2015,07,19,14,04,25.90
2015,07,19,14,05,26.00
2015,07,19,14,06,25.90
2015,07,19,14,07,25.90
2015,07,19,14,08,25.90
2015,07,19,14,09,25.90
2015,07,19,14,10,25.80
2015,07,19,14,11,25.70
2015,07,19,14,12,25.70
2015,07,19,14,13,25.70
2015,07,19,14,14,25.80
2015,07,19,14,15,25.80
2015,07,19,14,16,25.80
2015,07,19,14,17,25.80
2015,07,19,14,18,25.80
2015,07,19,14,19,25.80
2015,07,19,14,20,25.90
2015,07,19,14,21,25.90
2015,07,19,14,22,25.90
2015,07,19,14,23,25.80
2015,07,19,14,24,25.90
2015,07,19,14,25,26.00
2015,07,19,14,26,26.10
2015,07,19,14,27,26.20
2015,07,19,14,28,26.20
2015,07,19,14,29,26.30
2015,07,19,14,30,26.40
2015,07,19,14,31,26.50
2015,07,19,14,32,26.30
2015,07,19,14,33,26.20
2015,07,19,14,34,26.10
2015,07,19,14,35,26.10
2015,07,19,14,36,26.10
2015,07,19,14,37,26.20
2015,07,19,14,38,26.20
2015,07,19,14,39,26.30
2015,07,19,14,40,26.30
2015,07,19,14,41,26.30
2015,07,19,14,42,26.30
2015,07,19,14,43,26.30
2015,07,19,14,44,26.30
2015,07,19,14,45,26.30
2015,07,19,14,46,26.30
2015,07,19,14,47,26.30
2015,07,19,14,48,26.40
2015,07,19,14,49,26.40
2015,07,19,14,50,26.30
2015,07,19,14,51,26.30
2015,07,19,14,52,26.20
2015,07,19,14,53,26.20
2015,07,19,14,54,26.20
2015,07,19,14,55,26.30
2015,07,19,14,56,26.30
2015,07,19,14,57,26.30
2015,07,19,14,58,26.30
2015,07,19,14,59,26.20
2015,07,19,15,00,26.30
2015,07,19,15,01,26.30
2015,07,19,15,02,26.40
2015,07,19,15,03,26.40
2015,07,19,15,04,26.40
2015,07,19,15,05,26.30
2015,07,19,15,06,26.20
2015,07,19,15,07,26.20
2015,07,19,15,08,26.10
2015,07,19,15,09,26.10
2015,07,19,15,10,26.20
2015,07,19,15,11,26.30
2015,07,19,15,12,26.40
2015,07,19,15,13,26.50
2015,07,19,15,14,26.60
2015,07,19,15,15,26.60
2015,07,19,15,16,26.70
2015,07,19,15,17,26.70
2015,07,19,15,18,26.70
2015,07,19,15,19,26.70
2015,07,19,15,20,26.60
2015,07,19,15,21,26.60
2015,07,19,15,22,26.50
2015,07,19,15,23,26.50
2015,07,19,15,24,26.40
2015,07,19,15,25,26.40
2015,07,19,15,26,26.40
2015,07,19,15,27,26.50
2015,07,19,15,28,26.60
2015,07,19,15,29,26.60
2015,07,19,15,30,26.60
2015,07,19,15,31,26.60
2015,07,19,15,32,26.60
2015,07,19,15,33,26.70
2015,07,19,15,34,26.70
2015,07,19,15,35,26.80
2015,07,19,15,36,26.80
2015,07,19,15,37,26.90
2015,07,19,15,38,27.00
2015,07,19,15,39,27.00
2015,07,19,15,40,26.90
2015,07,19,15,41,26.90
2015,07,19,15,42,26.80
2015,07,19,15,43,26.90
2015,07,19,15,44,27.00
2015,07,19,15,45,27.10
2015,07,19,15,46,27.30
2015,07,19,15,47,27.50
2015,07,19,15,48,27.60
2015,07,19,15,49,27.70
2015,07,19,15,50,27.90
2015,07,19,15,51,28.00
2015,07,19,15,52,28.20
2015,07,19,15,53,28.20
2015,07,19,15,54,28.10
2015,07,19,15,55,28.10
2015,07,19,15,56,28.00
2015,07,19,15,57,27.90
2015,07,19,15,58,28.00
2015,07,19,15,59,28.00
2015,07,19,16,00,28.00
2015,07,19,16,01,28.00
2015,07,19,16,02,28.00
2015,07,19,16,03,28.10
2015,07,19,16,04,28.20
2015,07,19,16,05,28.30
2015,07,19,16,06,28.30
2015,07,19,16,07,28.30
2015,07,19,16,08,28.20
2015,07,19,16,09,28.10
2015,07,19,16,10,28.10
2015,07,19,16,11,28.10
2015,07,19,16,12,28.10
2015,07,19,16,13,28.10
2015,07,19,16,14,28.10
2015,07,19,16,15,28.10
2015,07,19,16,16,28.00
2015,07,19,16,17,27.90
2015,07,19,16,18,28.00
2015,07,19,16,19,28.00
2015,07,19,16,20,28.00
2015,07,19,16,21,28.10
2015,07,19,16,22,28.10
2015,07,19,16,23,28.20
2015,07,19,16,24,28.20
2015,07,19,16,25,28.40
2015,07,19,16,26,28.50
2015,07,19,16,27,28.60
2015,07,19,16,28,28.70
2015,07,19,16,29,28.80
2015,07,19,16,30,28.90
2015,07,19,16,31,29.00
2015,07,19,16,32,28.90
2015,07,19,16,33,28.90
2015,07,19,16,34,28.90
2015,07,19,16,35,28.80
2015,07,19,16,36,28.70
2015,07,19,16,37,28.60
2015,07,19,16,38,28.60
2015,07,19,16,39,28.60
2015,07,19,16,40,28.60
2015,07,19,16,41,28.60
2015,07,19,16,42,28.60
2015,07,19,16,43,28.50
2015,07,19,16,44,28.40
2015,07,19,16,45,28.40
2015,07,19,16,46,28.40
2015,07,19,16,47,28.40
2015,07,19,16,48,28.50
2015,07,19,16,49,28.50
2015,07,19,16,50,28.60
2015,07,19,16,51,28.60
2015,07,19,16,52,28.50
2015,07,19,16,53,28.30
2015,07,19,16,54,28.20
2015,07,19,16,55,28.20
2015,07,19,16,56,28.20
2015,07,19,16,57,28.30
2015,07,19,16,58,28.40
2015,07,19,16,59,28.40
2015,07,19,17,00,28.40
2015,07,19,17,01,28.40
2015,07,19,17,02,28.50
2015,07,19,17,03,28.40
2015,07,19,17,04,28.40
2015,07,19,17,05,28.40
2015,07,19,17,06,28.40
2015,07,19,17,07,28.50
2015,07,19,17,08,28.60
2015,07,19,17,09,28.70
2015,07,19,17,10,28.70
2015,07,19,17,11,28.80
2015,07,19,17,12,28.80
2015,07,19,17,13,28.90
2015,07,19,17,14,28.90
2015,07,19,17,15,29.00
2015,07,19,17,16,29.10
2015,07,19,17,17,29.20
2015,07,19,17,18,29.20
2015,07,19,17,19,29.30